Location: Asheville, NC
(35.6000°N, 82.5500°W)
Time: 22:57:14
(UTC-04:00)

XW-2C - Pass Details

Date: 12 January 2018
Orbit: 509 x 532 km, 97.5° (Epoch: 27 May)

Event Time Altitude Azimuth Distance (km) Brightness Sun altitude
Rises 18:38:03 0° 197° (SSW) 2,658 ? -12.2°
Reaches altitude 10° 18:40:32 10° 214° (SW) 1,774 ? -12.7°
Maximum altitude 18:43:30 21° 265° (W) 1,223 ? -13.3°
Drops below altitude 10° 18:46:28 10° 315° (NW) 1,783 ? -13.8°
Sets 18:48:59 0° 332° (NNW) 2,676 ? -14.3°
